Regional Weather Roundup
Issued by NWS

Home | Current Version | Previous Version | Graphics & Text | Print | Product List | Glossary On
Versions: 1 2 3 4 5 6 7 8 9 10 11 12 13 14 15 16 17 18 19 20 21 22 23 24 25 26 27 28 29 30 31 32 33 34 35 36 37 38 39 40 41 42 43 44 45 46 47 48 49 50
508
ASUS43 KDMX 060503
RWRIA

WEATHER ROUNDUP FOR IOWA
NATIONAL WEATHER SERVICE DES MOINES IA
1100 PM CST FRI FEB 05 2016

NOTE: "FAIR" INDICATES FEW OR NO CLOUDS BELOW 12,000 FEET WITH NO
SIGNIFICANT WEATHER AND/OR OBSTRUCTIONS TO VISIBILITY.

* - THESE STATIONS ARE NOT NWS STATIONS...THUS NOT UNDER NWS
QUALITY CONTROL.  THEY ALSO DO NOT REPORT WEATHER SUCH
AS PRECIPITATION OR FOG.

IAZ001>003-012>014-020>022-031>034-043>046-060600-
   NORTHWEST IOWA

CITY           SKY/WX    TMP DP  RH WIND       PRES   REMARKS
CARROLL *      CLOUDY    30  30 100 W8        30.23S FOG     WCI  23
CHEROKEE *     CLOUDY    27  27 100 W3        30.22S FOG
DENISON *      CLOUDY    27  27 100 CALM      30.21R FOG
LE MARS *      CLOUDY    28  28 100 NW3       30.24R
ORANGE CITY *  CLOUDY    28  27  93 NW8       30.21R WCI  20
SHELDON *      CLOUDY    28  28 100 W8        30.19S WCI  20
SIOUX CITY     CLOUDY    32  27  81 NW9       30.24S WCI  24
SPENCER        CLOUDY    27  24  89 W5        30.20S FOG     WCI  22
STORM LAKE *   CLOUDY    27  27 100 W7        30.20F FOG     WCI  19
$$

IAZ055>058-069>071-079>083-090>094-060600-
   SOUTHWEST IOWA

CITY           SKY/WX    TMP DP  RH WIND       PRES   REMARKS
ATLANTIC *     CLOUDY    25  25 100 S5        30.24S FOG     WCI  19
AUDUBON *      CLOUDY    30  27  86 SW6       30.23F FOG     WCI  24
CLARINDA *     FOG       23  23 100 CALM      30.28S VSB 1/2
COUNCIL BLFS * CLOUDY    30  30 100 SW3       30.23F FOG
CRESTON *      CLOUDY    25  23  93 S7        30.25S WCI  17
HARLAN  *      FOG       28  28 100 S9        30.26F VSB 1/2 WCI  20
LAMONI         PTCLDY    27  23  85 S6        30.25S WCI  20
RED OAK *      MOCLDY    27  27 100 SW5       30.26S FOG     WCI  21
SHENANDOAH *   MOCLDY    28  28 100 CALM      30.27S
$$

IAZ047>049-059>061-072>074-084-060600-
   CENTRAL IOWA

CITY           SKY/WX    TMP DP  RH WIND       PRES   REMARKS
AMES           CLOUDY    29  26  89 S7        30.25S WCI  22
ANKENY *       CLOUDY    30  27  86 S7        30.25F WCI  23
BOONE *        CLOUDY    28  27  93 SW5       30.22S WCI  23
CHARITON *     CLOUDY    27  23  86 S3        30.26S
DES MOINES     CLOUDY    30  25  81 S8        30.25F WCI  22
GRINNELL*      CLOUDY    29  24  83 S7        30.26F WCI  22
KNOXVILLE *    CLOUDY    30  25  80 S8        30.26S WCI  23
MARSHALLTOWN   CLOUDY    27  24  89 S8        30.25S WCI  19
NEWTON *       CLOUDY    28  28 100 S5        30.26S WCI  23
PELLA *        CLOUDY    30  25  80 S5        30.29S WCI  25
$$

IAZ004>006-015-016-023>025-035-036-060600-
   NORTH CENTRAL IOWA

CITY           SKY/WX    TMP DP  RH WIND       PRES   REMARKS
ALGONA *       CLOUDY    27  27 100 S8        30.20F WCI  18
CLARION *      CLOUDY    27  25  93 S9        30.22F FOG     WCI  17
ESTHERVILLE    CLOUDY    26  24  92 W10       30.19S FOG     WCI  16
FORT DODGE *   CLOUDY    28  25  86 S6        30.23F WCI  22
MASON CITY     CLOUDY    25  24  96 SW10      30.22F FOG     WCI  15
FOREST CITY *  CLOUDY    27  27 100 S8        30.21S FOG     WCI  18
WEBSTER CITY * CLOUDY    28  27  93 SW7       30.22S WCI  21
IOWA FALLS *   CLOUDY    28  26  92 S10       30.25S WCI  18
$$

IAZ007>011-017>019-026>030-037>042-050>054-066-060600-
   NORTHEAST IOWA

CITY           SKY/WX    TMP DP  RH WIND       PRES   REMARKS
CEDAR RAPIDS   CLOUDY    27  23  85 S6        30.28S WCI  20
CHARLES CITY * CLOUDY    25  25 100 S10       30.24F WCI  15
CLINTON *      CLOUDY    27  24  89 SW6       30.32R WCI  20
DECORAH *      CLOUDY    25  21  86 SW7       30.23S WCI  17
DUBUQUE        CLOUDY    24  21  88 SW8       30.27S WCI  15
MONTICELLO *   CLOUDY    28  23  80 SW6       30.29S WCI  22
OELWEIN *      CLOUDY    27  23  86 S7        30.26F WCI  19
WATERLOO       CLOUDY    26  22  84 S8        30.26F WCI  18
$$

IAZ064-065-067-068-078-060600-
   EAST CENTRAL IOWA

CITY           SKY/WX    TMP DP  RH WIND       PRES   REMARKS
DAVENPORT      CLOUDY    28  21  75 SW6       30.31S WCI  22
IOWA CITY      CLOUDY    27  23  85 SE5       30.31F WCI  22
MT. PLEASANT * CLOUDY    32  25  74 S6        30.31F WCI  26
MUSCATINE *    CLOUDY    28  25  86 CALM      30.32F
QUAD CITIES    CLOUDY    29  22  75 S5        30.31F WCI  24
$$

IAZ062-063-075>077-085>089-095>099-060600-
   SOUTHEAST IOWA

CITY           SKY/WX    TMP DP  RH WIND       PRES   REMARKS
BURLINGTON     CLOUDY    28  23  81 S3        30.30F
FAIRFIELD *    CLOUDY    30  21  69 S6        30.29F WCI  24
FORT MADISON * CLOUDY    28  23  80 S3        30.31F
KEOKUK *       CLOUDY    30  25  80 SE3       30.30F
OSKALOOSA *    CLOUDY    28  25  86 S6        30.28F WCI  22
OTTUMWA        CLOUDY    30  23  75 S6        30.28F WCI  24
WASHINGTON *   CLOUDY    28  25  86 S6        30.31F WCI  22
$$

ABBREVIATIONS USED IN REMARKS
   TC - TEMPERATURES IN CELSIUS
  WCI - WIND CHILL INDEX
   HX - HEAT INDEX
  VSB - VISIBILITY
$$





USA.gov is the U.S. government's official web portal to all federal, state and local government web resources and services.